Regional Weather Roundup
Issued by NWS

Home | Current Version | Previous Version | Graphics & Text | Print | Product List | Glossary On
Versions: 1 2 3 4 5 6 7 8 9 10 11 12 13 14 15 16 17 18 19 20 21 22 23 24 25 26 27 28 29 30 31 32 33 34 35 36 37 38 39 40 41 42 43 44 45 46 47 48 49 50
000
ASUS45 KCYS 181510
RWRWY

WYOMING REGIONAL WEATHER ROUNDUP
NATIONAL WEATHER SERVICE CHEYENNE WY
800 AM MST THU JAN 18 2018

NOTE:  "FAIR" INDICATES FEW OR NO CLOUDS BELOW 12,000 FEET
WITH NO SIGNIFICANT WEATHER AND/OR OBSTRUCTIONS TO VISIBILITY.

WYZ001-181600-
YELLOWSTONE NATIONAL PARK

CITY           SKY/WX    TMP DP  RH WIND       PRES   REMARKS
LK YELLOWSTONE   N/A     22  20  92 CALM      30.18F
W YELLOWSTONE  NOT AVBL

$$
WYZ002>013-054>058-071-098>099-181600-
NORTHERN WYOMING

CITY           SKY/WX    TMP DP  RH WIND       PRES   REMARKS
JACKSON        CLOUDY    10   7  87 N5        30.23F WCI   2
CODY           FAIR      42  25  50 MISG      30.00F
GREYBULL       FAIR      12   8  84 SW5       30.07S WCI   4
WORLAND        FAIR      19  15  84 SE6       30.05S WCI  11
SHERIDAN       FAIR      31  23  72 CALM      29.87F
BUFFALO        FAIR      44  16  32 SW6       29.92F
GILLETTE         N/A    N/A N/A N/A MISG      29.92R
HULETT         FAIR      37  19  48 W9        29.92S WCI  31
NEWCASTLE      FAIR      28  19  69 NE5       29.98S WCI  23

$$
WYZ014>020-022>026-101>103-181600-
CENTRAL WYOMING

CITY           SKY/WX    TMP DP  RH WIND       PRES   REMARKS
BIG PINEY      FAIR      15  12  88 W3        30.24S
PINEDALE       FAIR      12  10  92 E6        30.24S WCI   3
DUBOIS         FAIR      32  23  69 N18G24    30.10F WCI  20
LANDER         FAIR      20  16  84 CALM      30.09R
RIVERTON       FAIR      20  13  74 NE5       30.10F WCI  13
CASPER         FAIR      37  20  50 SW26G38   30.07R WCI  25
DOUGLAS        FAIR      34  22  61 NE6       30.01F WCI  29

$$
WYZ021-027>030-104>119-181600-
SOUTHERN WYOMING

CITY           SKY/WX    TMP DP  RH WIND       PRES   REMARKS
EVANSTON       FAIR      30  19  63 SW7       30.24F WCI  23
FORT BRIDGER   FAIR      34  15  46 W10       30.26F WCI  26
ROCK SPRINGS   FAIR      28  21  75 SW9       30.24R WCI  19
DIXON            N/A     19  15  83 CALM      30.32S
RAWLINS        FAIR      33  19  56 W14       30.22F WCI  23
SARATOGA       FAIR      27  16  63 S10       30.24F WCI  17
LARAMIE        FAIR      31  14  49 SW15      30.15R WCI  20
CHEYENNE       FAIR      30  14  51 SW6       30.09R WCI  24
TORRINGTON     FAIR      40  23  50 W7        30.01F

$$



USA.gov is the U.S. government's official web portal to all federal, state and local government web resources and services.